Location: Unspecified
(0.0000°N, 0.0000°E)
Time: 01:27:26
(UTC+00:00)

Vanguard 3 - Pass Details

Date: 23 November 2019
Orbit: 508 x 3263 km, 33.3° (Epoch: 11 December)

Event Time Altitude Azimuth Distance (km) Brightness Sun altitude
Rises 07:11:17 0° 211° (SSW) 3,779 10.5 19.9°
Reaches altitude 10° 07:13:49 10° 201° (SSW) 3,120 10.2 20.5°
Maximum altitude 07:21:02 34° 138° (SE) 2,537 11.1 22.1°
Drops below altitude 10° 07:32:45 10° 79° (E) 5,114 12.3 24.8°
Sets 07:38:14 0° 71° (ENE) 6,544 12.5 26.1°
